Погода в Вязовке

Россия / Саратовская область     51°48′25″N   45°47′10″E
темп.,
°C
ветер,
м/с
пор.,
м/с
влажн.,
%
обл.,
%
осадки,
мм/ч
давл.,
гПа
погр.,
м
1 июля, пт
пт101:00+13зсз22686 0.0 101113
04:00+12зсз476950 0.0 1010110
07:00+14зсз3580100 0.4 1009141
10:00+16ссв5673100 2.4 1008592
13:00+14св5674100 3.2 1009823
16:00+13ссв5779100 4.4 1010771
19:00+11с7987100 2.0 1011636
22:00+10с599194 2.4 1011424
2 июля, сб
сб201:00+9ссз5892100 0.2 1010363
04:00+8сз4895100 0.2 1009237
07:00+10с2594100 1.8 1009225
10:00+11ссв3794100 6.3 1010315
13:00+13ссв61094100 2.7 1010671
16:00+17св8127492 3.6 10091193
19:00+17ссв81476100 1.2 1008858
22:00+15ссв101885100 2.4 1008765
3 июля, вс
вс301:00+14ссв8178598 0.1 1009662
04:00+12с6139268 0.3 1009335
07:00+14с61486100 0.3 1009516
10:00+19ссв7106736 0.4 1009929
13:00+22ссв8105285 0.6 10091751
16:00+23ссв69505 0.6 10091686
19:00+21всв466520 0.1 1010400
22:00+16ссз228211 0.2 101112
4 июля, пн
пн401:00+15ссз3385100 0.0 101233
04:00+14ссз3588100 0.0 101288
07:00+15с5108612 0.0 1013413
10:00+19ссв69584 0.0 10141261
13:00+22ссв8104313 0.0 10142462
16:00+23с894434 0.0 10142408
19:00+21с585892 0.0 1014740
22:00+17ссв117325 0.1 101613
5 июля, вт
вт501:00+14ссз22815 0.0 101712
04:00+12ссз32835 0.0 101823
07:00+15с35735 0.0 1019175
10:00+21ссв34515 0.0 1019933
13:00+23ссв34425 0.0 10191853
16:00+24с34416 0.0 10182142
19:00+24сз235446 0.0 1018195
22:00+18з22650 0.0 101811